User: anonymous   Login
Location: Syracuse
(43.0480°N, 76.1480°W)
Time: 19:32:43
(UTC-05:00)
Language:

Cosmos 1140 Rocket - Orbit

View from above orbital plane
View from above orbital plane
View from above satellite
View from above satellite

Ground track
Ground track

The orbit data is extracted from the following two-line orbital elements,

1 11574U 79089B   17343.88900859 +.00000037 +00000-0 +19692-4 0  9997
2 11574 074.0702 254.7222 0014826 117.1449 243.1220 14.40653321002265
Epoch (UTC): 09 December 2017 21:20:10
Eccentricity: 0.0014826
inclination: 74.0702°
perigee height: 746 km
apogee height: 767 km
right ascension of ascending node: 254.7222°
argument of perigee: 117.1449°
revolutions per day: 14.40653321
mean anomaly at epoch: 243.1220°
orbit number at epoch: 226

The dashed part of the orbit path shows where the satellite is in the earth's shadow,  

DLR